2022/12/23 00:00:00,41.4,-4.7
2022/12/23 00:10:00,42.1,-4.5
2022/12/23 00:20:00,42.2,-4.7
2022/12/23 00:30:00,42.8,-5.0
2022/12/23 00:40:00,43.6,-4.9
2022/12/23 00:50:00,44.2,-4.8
2022/12/23 01:00:00,44.4,-4.9
2022/12/23 01:10:00,44.7,-4.4
2022/12/23 01:20:00,45.0,-4.9
2022/12/23 01:30:00,45.4,-5.2
2022/12/23 01:40:00,45.6,-5.1
2022/12/23 01:50:00,46.3,-5.1
2022/12/23 02:00:00,46.2,-4.8
2022/12/23 02:10:00,46.1,-5.7
2022/12/23 02:20:00,46.5,-5.8
2022/12/23 02:30:00,46.8,-5.2
2022/12/23 02:40:00,47.4,-5.0
2022/12/23 02:50:00,47.5,-5.6
2022/12/23 03:00:00,48.0,-5.2
2022/12/23 03:10:00,48.1,-5.4
2022/12/23 03:20:00,48.7,-5.5
2022/12/23 03:30:00,49.7,-5.5
2022/12/23 03:40:00,50.3,-5.6
2022/12/23 03:50:00,50.7,-5.3
2022/12/23 04:00:00,51.2,-5.4
2022/12/23 04:10:00,52.0,-5.5
2022/12/23 04:20:00,52.6,-5.5
2022/12/23 04:30:00,52.7,-5.5
2022/12/23 04:40:00,53.1,-5.2
2022/12/23 04:50:00,53.4,-5.5
2022/12/23 05:00:00,54.3,-5.3
2022/12/23 05:10:00,54.7,-5.4
2022/12/23 05:20:00,54.8,-5.4
2022/12/23 05:30:00,54.9,-5.5
2022/12/23 05:40:00,55.4,-6.1
2022/12/23 05:50:00,55.5,-5.6
2022/12/23 06:00:00,55.4,-5.8
2022/12/23 06:10:00,55.6,-5.7
2022/12/23 06:20:00,55.5,-5.7
2022/12/23 06:30:00,55.5,-5.9
2022/12/23 06:40:00,55.5,-6.1
2022/12/23 06:50:00,55.8,-5.9
2022/12/23 07:00:00,56.4,-5.6
2022/12/23 07:10:00,57.0,-5.4
2022/12/23 07:20:00,58.0,-5.7
2022/12/23 07:30:00,59.0,-5.6
2022/12/23 07:40:00,59.3,-5.6
2022/12/23 07:50:00,59.9,-5.5
2022/12/23 08:00:00,60.5,-5.3
2022/12/23 08:10:00,60.4,-4.9
2022/12/23 08:20:00,60.3,-5.1
2022/12/23 08:30:00,60.6,-5.1
2022/12/23 08:40:00,60.9,-5.4
2022/12/23 08:50:00,61.0,-5.3
2022/12/23 09:00:00,60.8,-5.2
2022/12/23 09:10:00,60.6,-4.7
2022/12/23 09:20:00,60.6,-4.9
2022/12/23 09:30:00,60.8,-4.6
2022/12/23 09:40:00,60.8,-4.9
2022/12/23 09:50:00,61.1,-5.2
2022/12/23 10:00:00,61.7,-4.5
2022/12/23 10:10:00,62.2,-4.9
2022/12/23 10:20:00,62.6,-5.1
2022/12/23 10:30:00,62.9,-4.8
2022/12/23 10:40:00,63.1,-5.5
2022/12/23 10:50:00,63.6,-5.2
2022/12/23 11:00:00,64.6,-4.9
2022/12/23 11:10:00,65.3,-5.4
2022/12/23 11:20:00,65.4,-5.5
2022/12/23 11:30:00,65.7,-4.9
2022/12/23 11:40:00,66.5,-5.0
2022/12/23 11:50:00,66.7,-5.2
2022/12/23 12:00:00,67.4,-4.4
2022/12/23 12:10:00,67.7,-4.3
2022/12/23 12:20:00,67.7,-4.3
2022/12/23 12:30:00,67.9,-3.3
2022/12/23 12:40:00,67.5,-3.1
2022/12/23 12:50:00,33.8,-3.2
2022/12/23 13:00:00,67.4,-3.2
2022/12/23 13:10:00,66.7,-3.1
2022/12/23 13:20:00,66.5,-3.4
2022/12/23 13:30:00,66.8,-4.3
2022/12/23 13:40:00,67.4,-3.9
2022/12/23 13:50:00,67.7,-4.3
2022/12/23 14:00:00,67.8,-4.1
2022/12/23 14:10:00,68.2,-4.2
2022/12/23 14:20:00,68.0,-4.3
2022/12/23 14:30:00,68.5,-4.7
2022/12/23 14:40:00,69.4,-4.5
2022/12/23 14:50:00,69.9,-4.4
2022/12/23 15:00:00,70.3,-4.5
2022/12/23 15:10:00,70.5,-4.7
2022/12/23 15:20:00,70.5,-4.7
2022/12/23 15:30:00,71.1,-4.7
2022/12/23 15:40:00,71.5,-4.8
2022/12/23 15:50:00,71.8,-4.7
2022/12/23 16:00:00,71.6,-4.9
2022/12/23 16:10:00,71.8,-4.8
2022/12/23 16:20:00,72.1,-4.7
2022/12/23 16:30:00,72.0,-4.9
2022/12/23 16:40:00,72.2,-5.0
2022/12/23 16:50:00,72.4,-4.9
2022/12/23 17:00:00,72.3,-5.0
2022/12/23 17:10:00,72.1,-4.9
2022/12/23 17:20:00,72.2,-4.9
2022/12/23 17:30:00,72.8,-5.1
2022/12/23 17:40:00,72.9,-5.1
2022/12/23 17:50:00,73.6,-5.0
2022/12/23 18:00:00,74.0,-4.7
2022/12/23 18:10:00,74.7,-5.1
2022/12/23 18:20:00,75.0,-4.8
2022/12/23 18:30:00,74.6,-4.6
2022/12/23 18:40:00,74.7,-4.7
2022/12/23 18:50:00,74.6,-4.4
2022/12/23 19:00:00,74.9,-4.5
2022/12/23 19:10:00,74.7,-4.8
2022/12/23 19:20:00,74.2,-4.7
2022/12/23 19:30:00,74.3,-4.2
2022/12/23 19:40:00,75.0,-4.5
2022/12/23 19:50:00,75.3,-4.5
2022/12/23 20:00:00,75.5,-4.7
2022/12/23 20:10:00,75.5,-4.4
2022/12/23 20:20:00,75.6,-4.2
2022/12/23 20:30:00,75.7,-4.1
2022/12/23 20:40:00,75.4,-4.2
2022/12/23 20:50:00,75.2,-4.2
2022/12/23 21:00:00,75.2,-4.4
2022/12/23 21:10:00,75.1,-4.3
2022/12/23 21:20:00,75.4,-4.1
2022/12/23 21:30:00,75.6,-4.1
2022/12/23 21:40:00,76.0,-4.2
2022/12/23 21:50:00,76.9,-4.1
2022/12/23 22:00:00,77.6,-4.1
2022/12/23 22:10:00,78.0,-4.0
2022/12/23 22:20:00,78.4,-3.8
2022/12/23 22:30:00,78.8,-3.8
2022/12/23 22:40:00,79.0,-3.9
2022/12/23 22:50:00,79.0,-3.8
2022/12/23 23:00:00,78.9,-4.0
2022/12/23 23:10:00,78.9,-3.9
2022/12/23 23:20:00,78.8,-3.9
2022/12/23 23:30:00,79.2,-3.7
2022/12/23 23:40:00,79.2,-4.0
2022/12/23 23:50:00,79.5,-3.9
